OpenBCM V1.07b12 (Linux)

Packet Radio Mailbox

DB0FHN

[JN59NK Nuernberg]

 Login: GUEST





  
LU3DYB > SAT      31.08.15 23:06l 304 Lines 12051 Bytes #999 (0) @ WW
BID : 1066-LU3DYB
Read: GUEST DK3UZ DJ4AK
Subj: keplers 11/15
Path: DB0FHN<OE2XZR<OE5XBL<F1OYP<IZ3LSV<IW0QNL<JH4XSY<JM1YTR<JE7YGF<7M3TJZ<
      CX2SA<LU4ECL<LU3DYB
Sent: 150831/1652Z @:LU3DYB.BA.ARG.SA #:1066 [BAIRES] FBB7.00e $:1066-LU3DYB
From: LU3DYB@LU3DYB.BA.ARG.SA
To  : SAT@WW


OSCAR 7 (AO-7)          
1 07530U 74089B   15242.85659941 -.00000049  00000-0 -33096-4 0  9994
2 07530 101.5290 216.2475 0012023 155.5585 269.9144 12.53616181866610

UOSAT 2 (UO-11)         
1 14781U 84021B   15243.15784165  .00000350  00000-0  49975-4 0  9994
2 14781  97.7944 298.3674 0008613 176.5590 183.5684 14.82490255693130

LUSAT (LO-19)           
1 20442U 90005G   15242.78833060  .00000047  00000-0  33106-4 0  9993
2 20442  98.5137 177.2303 0010667 290.6229  69.3811 14.32756289337626

EYESAT-1 (AO-27)        
1 22825U 93061C   15242.46019425  .00000023  00000-0  26406-4 0  9990
2 22825  98.7149 192.6140 0009584  90.8326  29.6220 14.29899503143555

ITAMSAT (IO-26)         
1 22826U 93061D   15242.82669759  .00000036  00000-0  31008-4 0  9990
2 22826  98.7093 193.1391 0010122  82.5107 277.7224 14.30218507143756

RADIO ROSTO (RS-15)     
1 23439U 94085A   15241.97616620 -.00000033  00000-0  28060-3 0  9993
2 23439  64.8131 202.1307 0156719 359.2297   0.8364 11.27563179851475

JAS-2 (FO-29)           
1 24278U 96046B   15242.17318675 -.00000049  00000-0 -11717-4 0  9996
2 24278  98.5486 200.9899 0349464 238.9340 189.8205 13.53055726940037

TECHSAT 1B (GO-32)      
1 25397U 98043D   15242.47938649  .00000002  00000-0  19630-4 0  9999
2 25397  98.5259 190.6162 0002406  99.0692  19.9286 14.23557899890362

ISS (ZARYA)             
1 25544U 98067A   15243.01449383  .00003616  00000-0  58744-4 0  9995
2 25544  51.6445  70.4086 0001411  94.6548   8.3082 15.55575721959686

PCSAT (NO-44)           
1 26931U 01043C   15242.48147271  .00000019  00000-0  39144-4 0  9992
2 26931  67.0531 345.4462 0005962 274.2716  85.7703 14.30338312726423

SAUDISAT 1C (SO-50)     
1 27607U 02058C   15243.23785501  .00000329  00000-0  67407-4 0  9995
2 27607  64.5564 329.6186 0083154 273.8961  85.2638 14.74827126682354

CUTE-1 (CO-55)          
1 27844U 03031E   15242.49567315  .00000119  00000-0  73798-4 0  9995
2 27844  98.6965 249.9660 0010931  86.7012 273.5416 14.21839002630999

CUBESAT XI-IV (CO-57)   
1 27848U 03031J   15242.49346981  .00000096  00000-0  63726-4 0  9997
2 27848  98.7062 249.9098 0010832  93.4990  59.7006 14.21481033630904

MOZHAYETS 4 (RS-22)     
1 27939U 03042A   15243.21990875  .00000553  00000-0  10881-3 0  9999
2 27939  97.8502  41.8161 0013652 144.7410 215.4699 14.66136557637187

HAMSAT (VO-52)          
1 28650U 05017B   15242.55106182  .00000858  00000-0  99616-4 0  9992
2 28650  97.5804 231.6763 0025046 142.2139 218.0842 14.87596299558501

CUBESAT XI-V (CO-58)    
1 28895U 05043F   15242.47618223  .00000384  00000-0  83558-4 0  9999
2 28895  97.8223  66.3743 0018363  64.0635 296.2457 14.62879573524456

CUTE-1.7+APD II (CO-65) 
1 32785U 08021C   15243.21737503  .00000750  00000-0  89358-4 0  9998
2 32785  97.6425 283.9956 0013590 172.5242 280.7550 14.87033026397384

DELFI-C3 (DO-64)        
1 32789U 08021G   15242.76150251  .00002554  00000-0  20639-3 0  9990
2 32789  97.6693 301.8613 0013540 159.2344 322.1029 15.00627269398269

SEEDS II (CO-66)        
1 32791U 08021J   15243.09174738  .00001066  00000-0  11886-3 0  9997
2 32791  97.6444 286.0666 0014279 165.4966 194.6665 14.88999009397465

YUBILEINY (RS-30)       
1 32953U 08025A   15243.08745138  .00000010  00000-0 -13620-7 0  9999
2 32953  82.5033 287.6665 0017345 277.4390  82.4726 12.43063089329916

PRISM (HITOMI)          
1 33493U 09002B   15243.19939811  .00001693  00000-0  16583-3 0  9994
2 33493  98.2456  84.2633 0017419  83.8407 276.4727 14.93639269357772

KKS-1 (KISEKI)          
1 33499U 09002H   15242.90887822  .00000421  00000-0  71119-4 0  9997
2 33499  98.2476  21.5228 0008242 310.7380 210.6219 14.74627805354629

SWISSCUBE               
1 35932U 09051B   15242.21113130  .00000410  00000-0  10497-3 0  9992
2 35932  98.4164   1.4602 0008959 109.8679 250.3485 14.55501528314731

ITUPSAT 1               
1 35935U 09051E   15242.30616690  .00000311  00000-0  83128-4 0  9996
2 35935  98.4284   2.7500 0009416 112.9788 247.2403 14.54913222314702

XIWANG-1 (HOPE-1)       
1 36122U 09072B   15243.10902141 -.00000060  00000-0 -43517-4 0  9997
2 36122 100.1886 285.2208 0006922 310.2696  49.7820 13.16328823274317

TISAT 1                 
1 36799U 10035E   15243.02763250  .00001309  00000-0  14591-3 0  9999
2 36799  98.0192 344.2990 0011980 327.2083 121.8162 14.88784354278099

M-CUBED & EXP-1 PRIME   
1 37855U 11061F   15242.68515017  .00002064  00000-0  12780-3 0  9997
2 37855 101.6986 132.6819 0195067 215.3025 143.5136 14.97741820208306

CUBEBUG-1 (CAPITAN BETO)
1 39153U 13018D   15243.23260966  .00000678  00000-0  97885-4 0  9995
2 39153  98.0151 327.3793 0017519  15.5285 344.6460 14.79372799126576

EAGLE 2                 
1 39436U 13066W   15242.44234585  .00009979  00000-0  62894-3 0  9996
2 39436  97.7410 319.1560 0021121 207.5641 152.4469 15.09162377 96683

CUBEBUG-2 (LO-74)       
1 39440U 13066AA  15242.77540763  .00000581  00000-0  90283-4 0  9999
2 39440  97.7177 297.1759 0080378 266.6752  92.5260 14.74670934 95328

FUNCUBE-1 (AO-73)       
1 39444U 13066AE  15242.17634653  .00000946  00000-0  12720-3 0  9993
2 39444  97.7243 302.2031 0058215 254.0202 105.4593 14.80421184 94367

UWE-3                   
1 39446U 13066AG  15242.71491611  .00000625  00000-0  92081-4 0  9993
2 39446  97.7202 299.6495 0070019 260.1224  99.2077 14.77174556 94254

SPROUT                  
1 39770U 14029E   15243.02975607  .00002392  00000-0  29331-3 0  9990
2 39770  97.8747 338.8419 0008496 322.8146  37.2458 14.84044336 68739

DUCHIFAT-1              
1 40021U 14033M   15243.21140650  .00001421  00000-0  15969-3 0  9993
2 40021  97.9458 144.0220 0012300 303.3292  56.6746 14.88295469 64967

CHUBUSAT-1              
1 40300U 14070C   15243.11876201  .00003002  00000-0  14989-3 0  9999
2 40300  97.4514 322.7768 0020913 231.0401 213.8946 15.18078268 45143

AIST-2                  
1 39133U 13015D   15243.21942752  .00001010  00000-0  86588-4 0  9997
2 39133  64.8761 197.2221 0028006 228.3119 131.5648 15.03189543129660

ESTCUBE 1               
1 39161U 13021C   15243.08152733  .00000687  00000-0  11922-3 0  9990
2 39161  98.0723 325.3509 0011007  81.2230 279.0216 14.71279532124255

QB50P1                  
1 40025U 14033R   15243.16543813  .00000873  00000-0  10288-3 0  9998
2 40025  97.9439 143.5135 0011619 303.2327  56.7775 14.87328248 64930

QB50P2                  
1 40032U 14033Y   15243.22210113  .00000959  00000-0  11360-3 0  9994
2 40032  97.9434 143.2666 0010921 295.9004  64.1086 14.86880740 64929

ANTELSAT                
1 40034U 14033AA  15243.11440948  .00000108  00000-0  24418-4 0  9990
2 40034  97.9350 133.4792 0058510 239.2972 120.2458 14.72863846 64324

TIGRISAT                
1 40043U 14033AK  15243.17066423  .00000419  00000-0  70939-4 0  9992
2 40043  97.9324 133.9395 0059527 241.6730 117.8466 14.73375615 64219

UKUBE-1                 
1 40074U 14037F   15243.09285865  .00001174  00000-0  15393-3 0  9995
2 40074  98.3556 318.6009 0004816  21.7407 338.4033 14.82380918 61937

DEORBITSAIL             
1 40719U 15032E   15243.02515078  .00001880  00000-0  28861-3 0  9990
2 40719  98.0470 131.8334 0018666  90.1877 270.1437 14.74664633  7569

NOAA 15                 
1 25338U 98030A   15242.48078565  .00000061  00000-0  44858-4 0  9998
2 25338  98.7762 241.1792 0009796 318.1036  41.9393 14.25656338899425

NOAA 18                 
1 28654U 05018A   15242.45447800  .00000029  00000-0  41197-4 0  9992
2 28654  99.1890 236.9263 0015278 110.9534 249.3273 14.12229382529550

NOAA 19                 
1 33591U 09005A   15242.50146325  .00000116  00000-0  88056-4 0  9994
2 33591  98.9959 192.5817 0013492 325.0388  34.9896 14.11971100337976

SO-33
1 25509U 98061B   15232.44554666  .00000237  00000-0  32509-4 0  9993
2 25509 031.4332 247.1541 0347857 276.7970 079.3197 14.30040377878621

AO-16
1 20439U 90005D   15231.83090123  .00000038  00000-0  30150-4 0  9994
2 20439 098.5423 167.0990 0010447 338.9821 041.4065 14.32563273335853

AO-51
1 28375U 04025K   15232.78687649  .00000054  00000-0  28693-4 0  9995
2 28375 098.2952 171.3877 0083577 133.8612 226.9523 14.41686939585806

NOAA-14
1 23455U 94089A   15232.44575640 -.00000006  00000-0  19547-4 0  9994
2 23455 098.7496 312.5691 0008392 255.5711 165.9020 14.14049926 64619

NOAA-16
1 26536U 00055A   15232.52804248 -.00000005  00000-0  21199-4 0  9990
2 26536 098.9373 298.4293 0011344 054.7505 305.4727 14.13105536768748

NOAA-17
1 27453U 02032A   15232.47160055  .00000015  00000-0  24093-4 0  9997
2 27453 098.3455 215.3030 0011754 000.9178 359.2022 14.24895832683819

RS-38
1 35869U 09049E   15232.68082990  .00000018  00000-0  27102-4 0  9993
2 35869 098.4868 270.2977 0003793 293.4319 066.6445 14.22306437307422

AUBIESAT
1 37854U 11061E   15232.48400786  .00001921  00000-0  12037-3 0  9995
2 37854 101.7049 119.0323 0184878 241.6613 195.1724 14.98880823206850

RS-40
1 38735U 12041C   15232.84794364  .00000040  00000-0  21992-3 0  9992
2 38735 082.4749 019.6527 0017356 041.8652 318.3753 12.42569844138940

DELFIN3XT
1 39428U 13066N   15232.53221125  .00000611  00000-0  10933-3 0  9993
2 39428 097.7102 277.6760 0123019 327.5720 031.7966 14.65572089 93169

TSUBAME
1 40302U 14070E   15232.93289984  .00002545  00000-0  14358-3 0  9996
2 40302 097.4448 310.4822 0041136 274.5897 133.4209 15.13360701 43460

LAMBDA-SAT
1 40458U 98067GB  15136.30676273  .20783109  12527-4  14817-2 0  9995
2 40458 051.6075 233.7697 0010355 318.5347 043.1720 16.39926603 21161
